contact:dominique.lefevre@mio.osupytheas.fr, maurice.libes@osupytheas.fr, didier.mallarino@osupytheas.fr
Project:EMSO http://www.emso-fr.org/EMSO-France
Depth: 2436.0 m
Title:EMSO Ligure Ouest : Data MII capteur AQUADOPP
Date,Latitude,Longitude,X_East,Y_North,Z_Up,Amplitude_X,Amplitude_Y,Amplitude_Z,Batterie,SoundSpeed,Heading,Pitch,Roll,Pressure,TIS,Speed,Direction
, degrees North, degrees East, m.s-1, m.s-1,m.s-1, 1, 1, 1, Volt, m.s-1, degree, degree, degree, dbar, degree_C, m.s-1, degree
2022-06-19T00:04:03,42.805,6.029,-0.014,-0.001,-0.026,105.0,105.0,102.0,13.4,1505.2,325.8,-0.8,1.9,2470.957,13.28,0.014,265.9
2022-06-19T00:07:03,42.805,6.029,-0.018,0.007,0.004,105.0,104.0,103.0,13.4,1505.2,320.9,-0.8,1.8,2470.944,13.28,0.019,291.2
2022-06-19T00:10:03,42.805,6.029,-0.036,-0.01,-0.022,105.0,102.0,103.0,13.4,1505.2,320.5,-0.8,1.8,2470.895,13.28,0.037,254.5
2022-06-19T00:13:03,42.805,6.029,-0.033,0.016,-0.013,105.0,104.0,102.0,13.4,1505.2,328.7,-0.8,1.8,2470.93,13.29,0.036,295.9
2022-06-19T00:16:03,42.805,6.029,-0.021,-0.01,-0.062,105.0,104.0,101.0,13.4,1505.2,321.2,-0.7,1.8,2470.896,13.29,0.023,244.5
2022-06-19T00:19:03,42.805,6.029,-0.014,-0.016,-0.029,104.0,104.0,102.0,13.4,1505.2,329.7,-0.8,1.8,2470.885,13.29,0.021,221.2
2022-06-19T00:22:03,42.805,6.029,-0.025,-0.002,-0.01,103.0,104.0,103.0,13.4,1505.2,327.8,-0.7,1.8,2470.882,13.29,0.025,265.4
2022-06-19T00:25:03,42.805,6.029,-0.022,-0.005,-0.038,104.0,105.0,103.0,13.3,1505.2,331.3,-0.7,1.8,2470.874,13.29,0.022,257.2
2022-06-19T00:28:03,42.805,6.029,-0.015,-0.018,-0.026,105.0,104.0,103.0,13.4,1505.2,324.9,-0.8,1.8,2470.869,13.29,0.023,219.8
2022-06-19T00:31:03,42.805,6.029,-0.005,0.017,-0.024,105.0,103.0,103.0,13.4,1505.2,329.7,-0.8,1.8,2470.852,13.29,0.017,343.6
2022-06-19T00:34:03,42.805,6.029,0.002,0.0,-0.014,105.0,105.0,102.0,13.3,1505.2,329.9,-0.8,1.8,2470.902,13.29,0.002,90.0
2022-06-19T00:37:03,42.805,6.029,-0.017,-0.01,-0.017,104.0,103.0,102.0,13.3,1505.2,327.2,-0.7,1.8,2470.861,13.29,0.019,239.5
2022-06-19T00:40:03,42.805,6.029,-0.01,0.002,-0.023,104.0,104.0,102.0,13.4,1505.2,331.8,-0.8,1.8,2470.875,13.29,0.01,281.3
2022-06-19T00:43:03,42.805,6.029,-0.022,0.001,-0.016,104.0,104.0,102.0,13.3,1505.2,321.1,-0.7,1.8,2470.868,13.29,0.022,272.6
2022-06-19T00:46:03,42.805,6.029,-0.011,0.014,-0.026,105.0,104.0,102.0,13.4,1505.2,322.6,-0.8,1.8,2470.842,13.29,0.017,321.8
2022-06-19T00:49:03,42.805,6.029,0.017,0.0,-0.024,105.0,106.0,103.0,13.4,1505.2,327.7,-0.7,1.8,2470.836,13.29,0.017,90.0
2022-06-19T00:52:03,42.805,6.029,-0.003,-0.024,-0.012,106.0,104.0,102.0,13.4,1505.2,331.5,-0.8,1.8,2470.813,13.29,0.024,187.1
2022-06-19T00:55:03,42.805,6.029,-0.001,-0.014,-0.017,106.0,104.0,103.0,13.4,1505.2,332.5,-0.8,1.8,2470.89,13.29,0.014,184.1
2022-06-19T00:58:03,42.805,6.029,-0.003,-0.01,-0.055,104.0,104.0,102.0,13.3,1505.2,332.9,-0.7,1.8,2470.838,13.29,0.01,196.7
2022-06-19T01:04:03,42.805,6.029,-0.016,0.002,-0.01,105.0,104.0,103.0,13.4,1505.2,325.3,-0.7,1.8,2470.908,13.28,0.016,277.1
2022-06-19T01:07:03,42.805,6.029,-0.01,-0.02,-0.027,105.0,105.0,103.0,13.3,1505.2,322.0,-0.7,1.8,2470.863,13.28,0.022,206.6
2022-06-19T01:10:03,42.805,6.029,-0.002,-0.021,-0.021,104.0,104.0,102.0,13.4,1505.2,330.8,-0.7,1.8,2470.882,13.29,0.021,185.4
2022-06-19T01:13:03,42.805,6.029,-0.009,-0.008,-0.022,104.0,105.0,102.0,13.3,1505.2,328.2,-0.8,1.8,2470.906,13.29,0.012,228.4
2022-06-19T01:16:03,42.805,6.029,-0.012,-0.007,0.001,103.0,105.0,102.0,13.3,1505.2,328.3,-0.8,1.8,2470.834,13.29,0.013,239.7
2022-06-19T01:19:03,42.805,6.029,-0.002,-0.007,0.011,104.0,103.0,102.0,13.3,1505.2,323.7,-0.7,1.8,2470.861,13.29,0.007,195.9
2022-06-19T01:22:03,42.805,6.029,-0.008,-0.006,-0.048,104.0,103.0,101.0,13.4,1505.2,322.0,-0.8,1.8,2470.843,13.29,0.01,233.1
2022-06-19T01:25:03,42.805,6.029,-0.01,-0.004,-0.036,105.0,106.0,103.0,13.4,1505.2,329.6,-0.7,1.8,2470.838,13.29,0.01,248.2
2022-06-19T01:28:03,42.805,6.029,-0.001,-0.024,-0.023,104.0,106.0,103.0,13.4,1505.2,326.8,-0.7,1.8,2470.812,13.29,0.024,182.4
2022-06-19T01:31:03,42.805,6.029,-0.007,-0.002,-0.041,105.0,104.0,103.0,13.4,1505.2,322.5,-0.7,1.8,2470.826,13.29,0.007,254.1
2022-06-19T01:34:03,42.805,6.029,-0.01,-0.017,-0.002,105.0,104.0,101.0,13.4,1505.2,327.8,-0.7,1.9,2470.841,13.29,0.019,210.5
2022-06-19T01:37:03,42.805,6.029,-0.011,-0.005,-0.009,105.0,105.0,103.0,13.3,1505.2,326.8,-0.8,1.8,2470.817,13.29,0.012,245.6
2022-06-19T01:40:03,42.805,6.029,-0.007,-0.023,-0.018,106.0,105.0,102.0,13.3,1505.2,329.7,-0.8,1.9,2470.818,13.29,0.024,196.9
2022-06-19T01:43:03,42.805,6.029,0.004,-0.005,-0.001,106.0,105.0,104.0,13.4,1505.2,330.3,-0.7,1.8,2470.861,13.29,0.006,141.3
2022-06-19T01:46:03,42.805,6.029,-0.01,-0.007,-0.04,106.0,104.0,103.0,13.4,1505.2,322.8,-0.8,1.8,2470.835,13.29,0.012,235.0
2022-06-19T01:49:03,42.805,6.029,-0.004,-0.009,-0.055,105.0,105.0,103.0,13.4,1505.2,328.9,-0.8,1.8,2470.806,13.29,0.009,204.0
2022-06-19T01:52:03,42.805,6.029,-0.006,-0.021,-0.03,106.0,104.0,103.0,13.4,1505.2,321.7,-0.8,1.8,2470.825,13.29,0.021,195.9
2022-06-19T01:55:03,42.805,6.029,-0.015,-0.004,-0.002,105.0,106.0,104.0,13.4,1505.2,324.9,-0.8,1.8,2470.835,13.29,0.015,255.1
2022-06-19T01:58:03,42.805,6.029,-0.019,-0.001,-0.035,106.0,103.0,103.0,13.3,1505.2,329.8,-0.8,1.8,2470.808,13.29,0.019,267.0
2022-06-19T02:04:03,42.805,6.029,-0.035,0.0,-0.019,104.0,105.0,102.0,13.4,1505.2,327.7,-0.8,1.8,2470.879,13.28,0.035,270.0
2022-06-19T02:07:03,42.805,6.029,0.001,0.0,-0.036,106.0,103.0,101.0,13.4,1505.2,325.5,-0.8,1.8,2470.87,13.28,0.001,90.0
2022-06-19T02:10:03,42.805,6.029,-0.017,0.006,-0.011,104.0,105.0,104.0,13.4,1505.2,328.4,-0.8,1.8,2470.891,13.29,0.018,289.4
2022-06-19T02:13:03,42.805,6.029,-0.019,0.002,-0.023,106.0,104.0,102.0,13.3,1505.2,326.4,-0.8,1.8,2470.844,13.29,0.019,276.0
2022-06-19T02:16:03,42.805,6.029,0.0,0.018,-0.034,106.0,104.0,103.0,13.4,1505.2,325.9,-0.7,1.8,2470.831,13.29,0.018,0.0
2022-06-19T02:19:03,42.805,6.029,-0.006,0.001,-0.026,106.0,105.0,102.0,13.4,1505.2,332.0,-0.7,1.8,2470.859,13.29,0.006,279.5
2022-06-19T02:22:03,42.805,6.029,0.007,-0.003,-0.036,105.0,104.0,103.0,13.3,1505.2,324.4,-0.7,1.8,2470.835,13.29,0.007,113.2
2022-06-19T02:25:03,42.805,6.029,-0.009,0.009,-0.004,104.0,104.0,103.0,13.4,1505.2,322.9,-0.8,1.8,2470.826,13.29,0.012,315.0
2022-06-19T02:28:03,42.805,6.029,0.0,0.002,-0.018,108.0,104.0,102.0,13.4,1505.2,327.8,-0.7,1.8,2470.818,13.29,0.002,0.0
2022-06-19T02:31:03,42.805,6.029,-0.013,0.002,-0.033,107.0,104.0,103.0,13.4,1505.2,328.2,-0.8,1.8,2470.803,13.29,0.013,278.7
2022-06-19T02:34:03,42.805,6.029,-0.002,-0.015,-0.018,104.0,104.0,103.0,13.4,1505.2,321.5,-0.8,1.8,2470.839,13.29,0.015,187.6
2022-06-19T02:37:03,42.805,6.029,0.001,0.019,-0.002,105.0,104.0,104.0,13.4,1505.2,330.4,-0.7,1.8,2470.829,13.29,0.019,3.0
2022-06-19T02:40:03,42.805,6.029,-0.013,0.0,-0.028,104.0,105.0,102.0,13.3,1505.2,322.1,-0.8,1.8,2470.79,13.29,0.013,270.0
2022-06-19T02:43:03,42.805,6.029,-0.009,0.001,-0.029,104.0,104.0,103.0,13.4,1505.2,324.9,-0.7,1.8,2470.8,13.29,0.009,276.3
2022-06-19T02:46:03,42.805,6.029,-0.007,0.001,-0.008,105.0,106.0,102.0,13.4,1505.2,327.4,-0.7,1.8,2470.824,13.29,0.007,278.1
2022-06-19T02:49:03,42.805,6.029,-0.019,0.01,-0.012,106.0,106.0,103.0,13.4,1505.2,320.6,-0.8,1.8,2470.786,13.29,0.021,297.8
2022-06-19T02:52:03,42.805,6.029,-0.003,-0.026,-0.021,105.0,104.0,102.0,13.3,1505.2,321.8,-0.8,1.8,2470.803,13.29,0.026,186.6
2022-06-19T02:55:03,42.805,6.029,0.013,0.001,-0.015,107.0,105.0,104.0,13.3,1505.2,328.9,-0.8,1.8,2470.768,13.29,0.013,85.6
2022-06-19T02:58:03,42.805,6.029,-0.005,-0.008,-0.022,105.0,104.0,102.0,13.4,1505.2,322.0,-0.7,1.8,2470.789,13.29,0.009,212.0
2022-06-19T03:04:03,42.805,6.029,-0.003,0.0,-0.033,107.0,103.0,101.0,13.4,1505.2,327.2,-0.8,1.8,2470.826,13.29,0.003,270.0
2022-06-19T03:07:03,42.805,6.029,-0.005,-0.005,-0.009,105.0,104.0,103.0,13.4,1505.2,323.5,-0.8,1.8,2470.821,13.29,0.007,225.0
2022-06-19T03:10:03,42.805,6.029,0.001,-0.004,-0.009,105.0,106.0,102.0,13.3,1505.2,326.4,-0.8,1.8,2470.836,13.29,0.004,166.0
2022-06-19T03:13:03,42.805,6.029,-0.022,0.003,-0.018,105.0,104.0,102.0,13.3,1505.2,325.1,-0.8,1.8,2470.815,13.29,0.022,277.8
2022-06-19T03:16:03,42.805,6.029,0.003,-0.004,-0.013,105.0,105.0,102.0,13.3,1505.2,320.8,-0.8,1.8,2470.816,13.29,0.005,143.1
2022-06-19T03:19:03,42.805,6.029,-0.011,-0.009,0.0,104.0,105.0,104.0,13.4,1505.2,320.6,-0.8,1.8,2470.828,13.29,0.014,230.7
2022-06-19T03:22:03,42.805,6.029,0.02,0.006,-0.013,104.0,104.0,101.0,13.3,1505.2,332.2,-0.8,1.8,2470.836,13.29,0.02,73.3
2022-06-19T03:25:03,42.805,6.029,-0.01,0.013,-0.032,105.0,104.0,102.0,13.3,1505.2,324.5,-0.8,1.8,2470.818,13.29,0.016,322.4
2022-06-19T03:28:03,42.805,6.029,-0.007,-0.015,-0.01,104.0,103.0,104.0,13.4,1505.2,327.0,-0.8,1.8,2470.826,13.29,0.016,205.0
2022-06-19T03:31:03,42.805,6.029,0.006,0.008,-0.005,105.0,103.0,103.0,13.3,1505.2,333.8,-0.8,1.8,2470.758,13.29,0.01,36.9
2022-06-19T03:34:03,42.805,6.029,-0.002,0.014,-0.019,104.0,103.0,102.0,13.4,1505.2,325.6,-0.7,1.8,2470.819,13.29,0.014,351.9
2022-06-19T03:37:03,42.805,6.029,0.0,0.003,0.001,103.0,105.0,102.0,13.3,1505.2,331.1,-0.7,1.8,2470.823,13.29,0.003,0.0
2022-06-19T03:40:03,42.805,6.029,0.003,-0.007,0.002,105.0,104.0,103.0,13.3,1505.2,319.6,-0.8,1.8,2470.817,13.29,0.007,156.8
2022-06-19T03:43:03,42.805,6.029,0.018,0.012,0.022,104.0,106.0,101.0,13.4,1505.2,324.3,-0.7,1.8,2470.787,13.29,0.021,56.3
2022-06-19T03:46:03,42.805,6.029,0.0,-0.021,0.019,104.0,104.0,102.0,13.4,1505.2,331.8,-0.7,1.8,2470.766,13.29,0.021,180.0
2022-06-19T03:49:03,42.805,6.029,-0.004,-0.012,-0.036,103.0,104.0,101.0,13.3,1505.2,321.6,-0.8,1.8,2470.797,13.29,0.012,198.4
2022-06-19T03:52:03,42.805,6.029,-0.013,-0.008,-0.002,103.0,104.0,100.0,13.4,1505.2,330.8,-0.7,1.8,2470.798,13.29,0.015,238.4
2022-06-19T03:55:03,42.805,6.029,-0.005,-0.009,0.006,108.0,106.0,102.0,13.4,1505.2,332.5,-0.8,1.8,2470.785,13.29,0.01,209.1
2022-06-19T03:58:03,42.805,6.029,0.003,0.012,-0.021,105.0,104.0,103.0,13.4,1505.2,330.4,-0.8,1.8,2470.792,13.29,0.012,14.0
2022-06-19T04:04:03,42.805,6.029,-0.013,0.015,-0.007,106.0,104.0,101.0,13.3,1505.2,332.0,-0.8,1.8,2470.855,13.29,0.019,319.1
2022-06-19T04:07:03,42.805,6.029,0.0,0.001,-0.013,104.0,104.0,103.0,13.4,1505.2,329.4,-0.8,1.8,2470.81,13.29,0.001,0.0
2022-06-19T04:10:03,42.805,6.029,0.01,0.018,0.008,105.0,104.0,102.0,13.3,1505.2,329.5,-0.8,1.8,2470.819,13.29,0.02,29.1
2022-06-19T04:13:03,42.805,6.029,0.011,-0.009,-0.035,104.0,103.0,103.0,13.4,1505.2,326.8,-0.8,1.8,2470.805,13.29,0.014,129.3
2022-06-19T04:16:03,42.805,6.029,-0.036,-0.015,-0.041,105.0,103.0,102.0,13.4,1505.2,322.7,-0.8,1.8,2470.821,13.29,0.039,247.4
2022-06-19T04:19:03,42.805,6.029,-0.009,-0.005,0.0,106.0,104.0,103.0,13.4,1505.2,328.8,-0.8,1.8,2470.808,13.29,0.01,240.9
2022-06-19T04:22:03,42.805,6.029,0.02,-0.02,-0.037,104.0,105.0,102.0,13.3,1505.2,328.1,-0.7,1.8,2470.839,13.29,0.028,135.0
2022-06-19T04:25:03,42.805,6.029,0.016,-0.002,-0.009,104.0,104.0,102.0,13.4,1505.2,324.6,-0.8,1.8,2470.823,13.29,0.016,97.1
2022-06-19T04:28:03,42.805,6.029,0.01,-0.013,-0.012,104.0,103.0,101.0,13.4,1505.2,325.4,-0.7,1.8,2470.819,13.29,0.016,142.4
2022-06-19T04:31:03,42.805,6.029,-0.004,0.0,0.004,104.0,104.0,101.0,13.3,1505.2,329.4,-0.7,1.8,2470.798,13.29,0.004,270.0
2022-06-19T04:34:03,42.805,6.029,0.0,-0.01,-0.017,105.0,104.0,102.0,13.3,1505.2,329.1,-0.8,1.8,2470.781,13.29,0.01,180.0
2022-06-19T04:37:03,42.805,6.029,0.005,0.002,0.005,106.0,103.0,101.0,13.4,1505.2,324.9,-0.8,1.8,2470.821,13.29,0.005,68.2
2022-06-19T04:40:03,42.805,6.029,-0.002,0.011,-0.031,107.0,106.0,101.0,13.3,1505.2,330.6,-0.7,1.8,2470.802,13.29,0.011,349.7
2022-06-19T04:43:03,42.805,6.029,0.0,0.0,-0.027,103.0,103.0,102.0,13.4,1505.2,322.7,-0.8,1.8,2470.752,13.29,0.0,0.0
2022-06-19T04:46:03,42.805,6.029,-0.005,-0.006,-0.048,103.0,104.0,102.0,13.4,1505.2,328.6,-0.8,1.8,2470.797,13.29,0.007,219.8
2022-06-19T04:49:03,42.805,6.029,-0.012,0.002,-0.006,105.0,104.0,102.0,13.4,1505.2,324.0,-0.8,1.8,2470.757,13.29,0.012,279.5
2022-06-19T04:52:03,42.805,6.029,0.012,0.003,-0.003,104.0,104.0,101.0,13.3,1505.2,324.3,-0.7,1.8,2470.763,13.29,0.012,76.0
2022-06-19T04:55:03,42.805,6.029,0.009,-0.002,0.0,103.0,104.0,102.0,13.4,1505.2,332.7,-0.8,1.9,2470.75,13.29,0.009,102.5
2022-06-19T04:58:03,42.805,6.029,0.005,-0.013,0.004,104.0,103.0,101.0,13.4,1505.2,320.1,-0.8,1.8,2470.788,13.29,0.013,159.0
2022-06-19T05:04:03,42.805,6.029,0.003,-0.025,-0.045,103.0,104.0,102.0,13.3,1505.2,325.9,-0.7,1.8,2470.814,13.28,0.025,173.2
2022-06-19T05:07:03,42.805,6.029,0.017,-0.002,-0.013,105.0,103.0,101.0,13.4,1505.2,328.4,-0.8,1.9,2470.796,13.28,0.017,96.7
2022-06-19T05:10:03,42.805,6.029,0.005,-0.01,0.003,106.0,104.0,101.0,13.3,1505.2,319.5,-0.8,1.9,2470.776,13.28,0.011,153.4
2022-06-19T05:13:03,42.805,6.029,0.01,0.002,-0.006,106.0,103.0,102.0,13.4,1505.2,328.9,-0.7,1.8,2470.759,13.29,0.01,78.7
2022-06-19T05:16:03,42.805,6.029,0.026,-0.015,-0.018,105.0,104.0,102.0,13.4,1505.2,324.9,-0.7,1.8,2470.799,13.29,0.03,120.0
2022-06-19T05:19:03,42.805,6.029,-0.005,0.0,0.017,103.0,105.0,102.0,13.4,1505.2,329.7,-0.7,1.8,2470.803,13.29,0.005,270.0
2022-06-19T05:22:03,42.805,6.029,0.0,-0.01,-0.029,105.0,104.0,101.0,13.4,1505.2,323.2,-0.8,1.8,2470.783,13.29,0.01,180.0
2022-06-19T05:25:03,42.805,6.029,0.0,0.001,-0.03,103.0,103.0,103.0,13.4,1505.2,320.6,-0.8,1.9,2470.768,13.29,0.001,0.0
2022-06-19T05:28:03,42.805,6.029,0.023,-0.013,-0.014,102.0,105.0,102.0,13.3,1505.2,329.1,-0.8,1.8,2470.766,13.29,0.026,119.5
2022-06-19T05:31:03,42.805,6.029,0.009,-0.004,-0.018,102.0,104.0,102.0,13.4,1505.2,329.5,-0.8,1.8,2470.787,13.29,0.009,114.0
2022-06-19T05:34:03,42.805,6.029,0.0,0.009,-0.022,103.0,104.0,102.0,13.3,1505.2,327.9,-0.8,1.8,2470.748,13.29,0.009,0.0
2022-06-19T05:37:03,42.805,6.029,0.027,-0.013,-0.001,108.0,101.0,102.0,13.4,1505.2,325.6,-0.7,1.8,2470.737,13.29,0.029,115.7
2022-06-19T05:40:03,42.805,6.029,0.011,-0.009,0.009,105.0,103.0,103.0,13.4,1505.2,327.2,-0.7,1.8,2470.778,13.29,0.014,129.3
2022-06-19T05:43:03,42.805,6.029,0.015,-0.004,0.007,104.0,104.0,103.0,13.3,1505.2,327.9,-0.8,1.8,2470.785,13.29,0.015,104.9
2022-06-19T05:46:03,42.805,6.029,0.011,0.009,-0.001,105.0,104.0,101.0,13.3,1505.2,321.1,-0.7,1.8,2470.721,13.29,0.014,50.7
2022-06-19T05:49:03,42.805,6.029,0.006,0.0,-0.016,103.0,104.0,103.0,13.4,1505.2,330.3,-0.7,1.8,2470.755,13.29,0.006,90.0
2022-06-19T05:52:03,42.805,6.029,0.006,-0.009,0.01,103.0,104.0,102.0,13.3,1505.2,329.2,-0.7,1.8,2470.758,13.29,0.01,146.3
2022-06-19T05:55:03,42.805,6.029,0.015,-0.005,-0.022,105.0,105.0,102.0,13.4,1505.2,320.7,-0.8,1.8,2470.774,13.29,0.015,108.4
2022-06-19T05:58:03,42.805,6.029,0.021,0.006,-0.011,104.0,104.0,101.0,13.4,1505.2,323.7,-0.7,1.8,2470.746,13.29,0.021,74.1
2022-06-19T06:04:03,42.805,6.029,0.016,-0.007,-0.012,103.0,105.0,103.0,13.3,1505.2,321.2,-0.8,1.8,2470.758,13.28,0.017,113.6
2022-06-19T06:07:03,42.805,6.029,0.015,-0.003,-0.027,105.0,103.0,101.0,13.4,1505.2,327.9,-0.8,1.8,2470.797,13.28,0.015,101.3
2022-06-19T06:10:03,42.805,6.029,-0.004,0.002,0.001,103.0,105.0,102.0,13.4,1505.2,331.3,-0.8,1.8,2470.783,13.28,0.004,296.6
2022-06-19T06:13:03,42.805,6.029,0.036,-0.005,-0.004,105.0,105.0,102.0,13.3,1505.2,324.6,-0.8,1.8,2470.758,13.28,0.036,97.9
2022-06-19T06:16:03,42.805,6.029,0.001,-0.016,-0.02,105.0,103.0,102.0,13.4,1505.2,330.8,-0.8,1.8,2470.773,13.29,0.016,176.4
2022-06-19T06:19:03,42.805,6.029,-0.004,0.0,-0.024,105.0,105.0,101.0,13.4,1505.2,324.9,-0.8,1.8,2470.784,13.29,0.004,270.0
2022-06-19T06:22:03,42.805,6.029,0.014,0.01,-0.009,105.0,103.0,101.0,13.3,1505.2,330.3,-0.8,1.8,2470.802,13.29,0.017,54.5
2022-06-19T06:25:03,42.805,6.029,0.004,0.003,-0.025,104.0,105.0,103.0,13.3,1505.2,322.6,-0.8,1.8,2470.773,13.29,0.005,53.1
2022-06-19T06:28:03,42.805,6.029,0.019,-0.01,-0.046,103.0,103.0,101.0,13.3,1505.2,321.3,-0.8,1.9,2470.752,13.29,0.021,117.8
2022-06-19T06:31:03,42.805,6.029,0.041,-0.028,-0.036,105.0,103.0,102.0,13.3,1505.2,327.0,-0.7,1.8,2470.75,13.29,0.049,124.3
2022-06-19T06:34:03,42.805,6.029,0.001,-0.017,-0.034,103.0,104.0,102.0,13.4,1505.2,328.8,-0.8,1.8,2470.753,13.29,0.017,176.6
2022-06-19T06:37:03,42.805,6.029,-0.005,-0.008,0.002,106.0,104.0,101.0,13.3,1505.2,326.0,-0.8,1.8,2470.732,13.29,0.009,212.0
2022-06-19T06:40:03,42.805,6.029,0.02,-0.009,-0.021,105.0,103.0,103.0,13.4,1505.2,325.5,-0.7,1.8,2470.742,13.29,0.021,114.2
2022-06-19T06:43:03,42.805,6.029,0.022,-0.002,-0.005,104.0,104.0,102.0,13.4,1505.2,325.1,-0.8,1.9,2470.771,13.29,0.022,95.2
2022-06-19T06:46:03,42.805,6.029,0.036,-0.002,-0.048,105.0,105.0,102.0,13.4,1505.2,321.1,-0.8,1.8,2470.731,13.29,0.036,93.2
2022-06-19T06:49:03,42.805,6.029,0.009,0.0,-0.014,106.0,104.0,102.0,13.4,1505.2,325.0,-0.8,1.8,2470.746,13.29,0.009,90.0
2022-06-19T06:52:03,42.805,6.029,0.013,-0.024,-0.03,107.0,104.0,102.0,13.4,1505.2,332.0,-0.8,1.8,2470.717,13.29,0.027,151.6
2022-06-19T06:55:03,42.805,6.029,0.021,-0.032,-0.014,106.0,104.0,102.0,13.4,1505.2,319.4,-0.8,1.8,2470.741,13.29,0.038,146.7
2022-06-19T06:58:03,42.805,6.029,0.02,-0.005,-0.012,103.0,105.0,102.0,13.4,1505.2,327.7,-0.8,1.8,2470.749,13.29,0.02,104.0
2022-06-19T07:01:03,42.805,6.029,0.019,-0.03,-0.023,105.0,105.0,102.0,13.4,1505.2,329.2,-0.8,1.8,2470.734,13.29,0.035,147.7
2022-06-19T07:04:03,42.805,6.029,-0.003,-0.022,-0.039,106.0,103.0,102.0,13.4,1505.2,329.6,-0.8,1.8,2470.713,13.29,0.022,187.8
2022-06-19T07:07:03,42.805,6.029,0.025,-0.023,-0.003,106.0,104.0,102.0,13.4,1505.2,329.9,-0.8,1.8,2470.761,13.29,0.033,132.6
2022-06-19T07:10:03,42.805,6.029,0.006,-0.019,-0.019,105.0,104.0,102.0,13.3,1505.2,325.9,-0.8,1.8,2470.729,13.29,0.019,162.5
2022-06-19T07:13:03,42.805,6.029,0.021,-0.012,0.011,105.0,104.0,102.0,13.4,1505.2,322.2,-0.7,1.9,2470.75,13.29,0.024,119.7
2022-06-19T07:16:03,42.805,6.029,0.006,-0.006,-0.022,107.0,106.0,102.0,13.4,1505.2,327.5,-0.7,1.8,2470.763,13.29,0.008,135.0
2022-06-19T07:19:03,42.805,6.029,0.008,-0.003,-0.013,106.0,104.0,102.0,13.4,1505.2,324.6,-0.8,1.9,2470.712,13.29,0.008,110.6
2022-06-19T07:22:03,42.805,6.029,0.028,-0.009,-0.039,104.0,104.0,103.0,13.4,1505.2,329.1,-0.7,1.8,2470.764,13.29,0.029,107.8
2022-06-19T07:25:03,42.805,6.029,0.015,-0.01,-0.013,105.0,104.0,103.0,13.4,1505.2,321.1,-0.8,1.8,2470.743,13.28,0.018,123.7
2022-06-19T07:28:03,42.805,6.029,0.026,-0.015,0.002,104.0,104.0,102.0,13.4,1505.2,322.6,-0.7,1.8,2470.734,13.29,0.03,120.0
2022-06-19T07:31:03,42.805,6.029,0.017,-0.01,-0.008,105.0,103.0,103.0,13.4,1505.2,322.0,-0.7,1.9,2470.751,13.28,0.019,120.5
2022-06-19T07:34:03,42.805,6.029,0.04,-0.028,-0.028,104.0,105.0,103.0,13.3,1505.2,331.5,-0.7,1.9,2470.756,13.28,0.048,125.0
2022-06-19T07:37:03,42.805,6.029,-0.001,-0.02,-0.027,104.0,104.0,102.0,13.4,1505.2,332.2,-0.8,1.8,2470.77,13.28,0.02,182.9
2022-06-19T07:40:03,42.805,6.029,0.014,0.008,-0.009,105.0,105.0,103.0,13.4,1505.2,323.9,-0.7,1.8,2470.708,13.28,0.016,60.3
2022-06-19T07:43:03,42.805,6.029,0.012,-0.034,-0.014,106.0,105.0,103.0,13.4,1505.2,333.4,-0.8,1.8,2470.789,13.28,0.036,160.6
2022-06-19T07:46:03,42.805,6.029,0.015,-0.022,-0.036,105.0,104.0,103.0,13.4,1505.2,321.6,-0.7,1.8,2470.748,13.29,0.026,145.7
2022-06-19T07:49:03,42.805,6.029,0.028,-0.018,-0.008,105.0,104.0,102.0,13.4,1505.2,329.0,-0.7,1.8,2470.752,13.28,0.033,122.7
2022-06-19T07:52:03,42.805,6.029,0.004,-0.005,-0.013,102.0,103.0,103.0,13.3,1505.2,329.8,-0.8,1.8,2470.746,13.28,0.006,141.3
2022-06-19T07:55:03,42.805,6.029,0.022,-0.021,-0.015,103.0,105.0,102.0,13.3,1505.2,326.7,-0.8,1.9,2470.79,13.28,0.03,133.7
2022-06-19T07:58:03,42.805,6.029,0.03,-0.026,-0.02,105.0,103.0,101.0,13.4,1505.2,326.4,-0.8,1.8,2470.735,13.28,0.039,130.9
2022-06-19T08:04:03,42.805,6.029,0.037,-0.034,-0.035,104.0,104.0,102.0,13.4,1505.2,328.4,-0.8,1.8,2470.788,13.28,0.05,132.6
2022-06-19T08:07:03,42.805,6.029,0.012,-0.021,-0.036,103.0,105.0,102.0,13.4,1505.2,331.1,-0.7,1.8,2470.776,13.28,0.024,150.3
2022-06-19T08:10:03,42.805,6.029,0.024,-0.001,-0.005,106.0,104.0,102.0,13.4,1505.2,332.5,-0.8,1.8,2470.802,13.28,0.024,92.4
2022-06-19T08:13:03,42.805,6.029,0.009,-0.027,-0.029,104.0,105.0,102.0,13.4,1505.2,326.0,-0.7,1.8,2470.795,13.28,0.028,161.6
2022-06-19T08:16:03,42.805,6.029,0.038,-0.014,-0.031,104.0,105.0,102.0,13.4,1505.2,325.5,-0.8,1.8,2470.805,13.28,0.04,110.2
2022-06-19T08:19:03,42.805,6.029,0.028,-0.003,-0.001,104.0,105.0,102.0,13.4,1505.2,320.1,-0.7,1.8,2470.787,13.28,0.028,96.1
2022-06-19T08:22:03,42.805,6.029,0.006,-0.011,-0.028,104.0,105.0,102.0,13.4,1505.2,330.0,-0.7,1.8,2470.76,13.28,0.012,151.4
2022-06-19T08:25:03,42.805,6.029,0.017,-0.034,0.0,104.0,104.0,102.0,13.4,1505.2,329.2,-0.8,1.8,2470.746,13.28,0.038,153.4
2022-06-19T08:28:03,42.805,6.029,0.001,-0.029,-0.025,105.0,105.0,102.0,13.4,1505.2,326.1,-0.8,1.8,2470.73,13.28,0.029,178.0
2022-06-19T08:31:03,42.805,6.029,0.008,-0.013,-0.016,105.0,105.0,102.0,13.4,1505.2,322.2,-0.7,1.8,2470.739,13.28,0.015,148.4
2022-06-19T08:34:03,42.805,6.029,-0.004,-0.004,-0.027,106.0,105.0,103.0,13.3,1505.2,322.6,-0.7,1.8,2470.746,13.28,0.005,225.0
2022-06-19T08:37:03,42.805,6.029,-0.002,-0.015,0.002,106.0,104.0,102.0,13.4,1505.2,331.5,-0.8,1.8,2470.737,13.28,0.015,187.6
2022-06-19T08:40:03,42.805,6.029,0.009,-0.04,-0.008,105.0,104.0,104.0,13.4,1505.2,329.1,-0.8,1.9,2470.766,13.28,0.041,167.3
2022-06-19T08:43:03,42.805,6.029,-0.006,-0.007,-0.024,106.0,105.0,103.0,13.3,1505.2,331.8,-0.8,1.8,2470.749,13.28,0.009,220.6
2022-06-19T08:46:03,42.805,6.029,0.015,-0.014,-0.022,106.0,106.0,102.0,13.4,1505.2,329.5,-0.7,1.8,2470.798,13.28,0.02,133.0
2022-06-19T08:49:03,42.805,6.029,0.006,-0.029,-0.015,106.0,105.0,103.0,13.4,1505.2,324.8,-0.8,1.8,2470.766,13.28,0.029,168.3
2022-06-19T08:52:03,42.805,6.029,0.001,-0.009,-0.012,108.0,105.0,103.0,13.4,1505.2,321.9,-0.8,1.8,2470.756,13.29,0.009,173.7
2022-06-19T08:55:03,42.805,6.029,0.008,-0.005,-0.034,106.0,107.0,101.0,13.3,1505.2,333.4,-0.8,1.8,2470.787,13.28,0.009,122.0
2022-06-19T08:58:03,42.805,6.029,0.003,-0.003,0.0,105.0,106.0,102.0,13.4,1505.2,326.4,-0.8,1.8,2470.784,13.28,0.004,135.0
2022-06-19T09:04:03,42.805,6.029,-0.005,-0.016,-0.033,107.0,104.0,103.0,13.4,1505.2,329.2,-0.7,1.8,2470.82,13.28,0.016,197.4
2022-06-19T09:07:03,42.805,6.029,-0.021,-0.027,-0.026,105.0,107.0,103.0,13.4,1505.2,322.9,-0.8,1.8,2470.799,13.28,0.034,217.9
2022-06-19T09:10:03,42.805,6.029,0.008,-0.02,-0.045,106.0,105.0,104.0,13.3,1505.2,326.7,-0.8,1.8,2470.86,13.28,0.021,158.2
2022-06-19T09:13:03,42.805,6.029,-0.011,-0.036,0.017,109.0,105.0,103.0,13.4,1505.2,322.8,-0.8,1.8,2470.805,13.28,0.037,197.0
2022-06-19T09:16:03,42.805,6.029,-0.018,-0.001,-0.004,106.0,105.0,103.0,13.4,1505.2,326.8,-0.7,1.8,2470.789,13.28,0.018,266.8
2022-06-19T09:19:03,42.805,6.029,0.0,-0.033,-0.041,105.0,105.0,103.0,13.3,1505.2,324.2,-0.7,1.8,2470.797,13.29,0.033,180.0
2022-06-19T09:22:03,42.805,6.029,-0.013,-0.031,-0.036,106.0,105.0,103.0,13.3,1505.2,321.2,-0.8,1.8,2470.779,13.29,0.033,202.7
2022-06-19T09:25:03,42.805,6.029,-0.002,-0.018,-0.019,106.0,103.0,102.0,13.4,1505.2,325.3,-0.7,1.8,2470.719,13.29,0.018,186.3
2022-06-19T09:28:03,42.805,6.029,-0.012,-0.006,0.006,106.0,104.0,103.0,13.3,1505.2,328.3,-0.8,1.8,2470.778,13.29,0.013,243.4
2022-06-19T09:31:03,42.805,6.029,-0.005,-0.015,-0.031,105.0,106.0,103.0,13.4,1505.2,320.7,-0.7,1.8,2470.806,13.29,0.015,198.4
2022-06-19T09:34:03,42.805,6.029,-0.029,-0.026,-0.025,105.0,105.0,103.0,13.4,1505.2,329.6,-0.7,1.8,2470.773,13.29,0.038,228.1
2022-06-19T09:37:03,42.805,6.029,-0.021,-0.003,-0.007,105.0,106.0,103.0,13.3,1505.2,331.0,-0.8,1.8,2470.782,13.29,0.021,261.9
2022-06-19T09:40:03,42.805,6.029,-0.007,-0.014,-0.038,104.0,105.0,103.0,13.4,1505.2,324.4,-0.7,1.8,2470.785,13.29,0.015,206.6
2022-06-19T09:43:03,42.805,6.029,-0.007,-0.032,-0.018,105.0,104.0,103.0,13.3,1505.2,325.4,-0.7,1.8,2470.774,13.29,0.032,192.3
2022-06-19T09:46:03,42.805,6.029,-0.012,-0.001,-0.036,104.0,105.0,103.0,13.4,1505.2,326.3,-0.8,1.8,2470.749,13.29,0.012,265.2
2022-06-19T09:49:03,42.805,6.029,-0.028,-0.007,-0.049,107.0,104.0,103.0,13.3,1505.2,320.4,-0.8,1.8,2470.749,13.29,0.028,256.0
2022-06-19T09:52:03,42.805,6.029,-0.013,-0.002,-0.006,106.0,105.0,103.0,13.4,1505.2,325.1,-0.8,1.8,2470.784,13.29,0.013,261.3